Location: Erba
(45.8000°N, 9.2500°E)
Time: 12:04:45
(UTC+02:00)

ISS - Pass Details

Date: 01 July 2020
Orbit: 417 x 420 km, 51.6° (Epoch: 02 July)

Event Time Altitude Azimuth Distance (km) Brightness Sun altitude
Exits shadow 04:08:47 19° 200° (SSW) 1,049 -2.3 -11.9°
Maximum altitude 04:10:41 37° 142° (SE) 663 -2.9 -11.7°
Drops below altitude 10° 04:13:49 10° 74° (ENE) 1,495 -0.1 -11.4°
Sets 04:16:00 0° 66° (ENE) 2,361 1.3 -11.2°
